Mt. Lincoln Summit Weather observations

Data are for 10 minute period ending at time listed.
 Day   Time   Solar   Ave.   Ave.  Ave.  Vector    Max.   Stn.  
  of    of     Rad.   Air    Rel.  Wind   Wind     Wind   Baro.  
Year   Day            Temp.  Hum.  Speed  Dir.     Gust   Pres. 
2016   (PST)   W/m2    F      %     mph   deg.      mph    mb    
-----------------------------------------------------------------
 240    0:00  999.0    54   39.6     1    263.8     1.2   570.90
 240    0:10  999.0    54   39.5     1    263.8     1.3   571.80
 240    0:20  999.0    54   39.7     1    264.4     1.2   566.40
 240    0:30  999.0    55   39.6     1    265.4     1.2   567.60
 240    0:40  999.0    55   39.6     1    269.4     1.2   564.80
 240    0:50  999.0    55   39.5     1    274.5     1.4   565.40
 240    1:00  999.0    54   39.5     1    274.8     1.4   570.10
 240    1:10  999.0    55   39.6     1    273.2     1.4   562.50
 240    1:20  999.0    55   39.6     1    270.1     1.4   565.70
 240    1:30  999.0    55   39.6     1    265.6     1.4   565.20
 240    1:40  999.0    55   39.6     1    265.1     1.3   566.50
 240    1:50  999.0    55   39.6     1    263.4     1.4   563.80
 240    2:00  999.0    55   39.6     1    263.9     1.3   571.30
 240    2:10  999.0    55   39.6     1    260.4     1.3   568.90
 240    2:20  999.0    55   39.6     1    256.3     1.3   567.00
 240    2:30  999.0    55   39.6     1    254.1     1.3   564.90
 240    2:40  999.0    55   39.6     1    252.7     1.3   565.30
 240    2:50  999.0    55   39.6     1    251.3     1.5   567.70
 240    3:00  999.0    55   39.6     1    250.5     1.3   567.30
 240    3:10  999.0    54   39.6     1    250.1     1.4   566.80
 240    3:20  999.0    54   39.5     1    245.9     1.3   569.20
 240    3:30  999.0    54   39.4     1    240.6     1.2   569.50
 240    3:40  999.0    53   39.4     1    232.5     1.3   569.10
 240    3:50  999.0    53   39.5     1    220.3     1.2   568.60
 240    4:00  999.0    53   39.6     1    218.5     1.2   564.50
 240    4:10  999.0    53   39.6     1    218.5     1.2   563.50
 240    4:20  999.0    53   39.6     1    218.5     0.9   566.50
 240    4:30  999.0    53   39.5     0    218.5     0.9   565.00
 240    4:40  999.0    53   39.5     0    218.5     0.8   563.80
 240    4:50  999.0    53   39.6     0    218.4     0.5   562.20
 240    5:00  999.0    52   39.7     0    218.4     0.8   561.50
 240    5:10  999.0    52   39.8     1    218.4     1.0   565.30
 240    5:20  999.0    52   39.7     1    218.0     1.2   564.00
 240    5:30  999.0    53   39.5     1    218.1     1.2   561.30
 240    5:40  999.0    53   39.4     1    218.1     1.2   563.50
 240    5:50  999.0    53   39.4     1    218.0     1.1   565.70
 240    6:00  999.0    54   39.2     1    217.8     1.0   568.80
 240    6:10  999.0    56   38.7     0    217.7     1.0   565.70
 240    6:20  999.0    57   38.2     0    216.2     0.9   564.10
 240    6:30  999.0    59   37.8     1    209.6     1.0   564.30
 240    6:40  999.0    60   37.3     1    203.8     1.7   568.20
 240    6:50  999.0    61   37.0     1    206.0     1.9   563.50
 240    7:00  999.0    61   36.8     1    202.4     1.8   564.80
 240    7:10  999.0    62   36.8     1    194.4     1.9   563.90
 240    7:20  999.0    62   36.8     1    195.3     2.0   566.80
 240    7:30  999.0    63   36.8     1    198.5     2.1   567.70
 240    7:40  999.0    64   36.8     1    202.7     2.1   571.10
 240    7:50  999.0    64   36.7     2    204.1     2.2   576.20
 240    8:00  999.0    65   36.6     2    202.1     2.0   571.00
 240    8:10  999.0    65   36.6     2    201.2     2.1   569.40
 240    8:20  999.0    65   36.6     2    206.4     2.4   571.80
 240    8:30  999.0    65   36.6     2    203.9     2.6   574.70
 240    8:40  999.0    65   36.8     2    204.7     2.4   578.90
 240    8:50  999.0    65   37.1     2    207.1     2.6   578.70
 240    9:00  999.0    65   37.0     2    214.3     2.7   577.70
 240    9:10  999.0    64   37.4     2    207.9     2.4   579.30
 240    9:20  999.0    64   38.0     2    204.9     2.6   581.80
 240    9:30  999.0    64   38.0     1    224.8     2.5   582.10
 240    9:40  999.0    62   38.5     1    228.4     2.4   582.70
 240    9:50  999.0    62   38.9     1    241.4     2.1   584.20
 240   10:00  999.0    63   39.2     2    226.3     2.8   584.50
 240   10:10  999.0    64   39.1     2    222.3     3.2   587.00
 240   10:20  999.0    65   39.0     2    211.0     3.7   590.00
 240   10:30  999.0    64   38.8     2    229.3     4.5   587.50
 240   10:40  999.0    65   39.2     2    221.6     3.4   589.60
 240   10:50  999.0    66   39.3     2    218.5     3.9   592.20
 240   11:00  999.0    66   39.4     2    232.0     4.4   594.30
 240   11:10  999.0    65   39.5     2    252.5     3.4   597.60
 240   11:20  999.0    65   39.6     1    255.8     3.6   597.70
 240   11:30  999.0    65   39.8     3    247.2     5.3   595.90
 240   11:40  999.0    65   39.9     1    263.8     2.2   596.00
 240   11:50  999.0    65   39.9     2    258.8     4.0   597.20
 240   12:00  999.0    66   40.0     2    258.1     4.2   599.20
 240   12:10  999.0    66   39.8     2    259.3     5.0   599.60
 240   12:20  999.0    65   40.0     2    254.1     4.2   599.90
 240   12:30  999.0    66   40.0     2    261.8     4.2   598.00
 240   12:40  999.0    65   40.0     1    280.8     3.0   599.50
 240   12:50  999.0    66   40.0     2    262.6     3.5   599.70
 240   13:00  999.0    65   40.0     3    252.6     5.0   599.60
 240   13:10  999.0    65   40.2     2    256.4     5.0   601.70
 240   13:20  999.0    65   40.2     3    248.8     5.7   602.70
 240   13:30  999.0    65   40.2     3    251.0     4.6   603.00
 240   13:40  999.0    66   40.1     3    243.8     5.6   603.70
 240   13:50  999.0    66   40.0     4    239.4     5.5   605.20
 240   14:00  999.0    66   40.1     2    255.9     4.2   602.40
 240   14:10  999.0    66   40.2     2    252.8     5.2   603.00
 240   14:20  999.0    66   40.2     2    261.2     5.1   603.90
 240   14:30  999.0    66   40.1     3    247.2     4.4   601.00
 240   14:40  999.0    66   40.2     3    256.4     4.8   602.00
 240   14:50  999.0    65   40.2     2    268.0     4.6   600.90
 240   15:00  999.0    65   40.1     2    265.8     5.2   599.30
 240   15:10  999.0    65   40.0     2    277.1     3.6   598.10
 240   15:20  999.0    65   40.1     2    272.5     3.9   598.70
 240   15:30  999.0    64   40.1     2    267.1     3.4   597.70
 240   15:40  999.0    64   40.2     2    275.0     3.9   596.50
 240   15:50  999.0    64   40.2     1    273.2     3.2   596.10
 240   16:00  999.0    64   40.1     1    290.4     2.6   594.70
 240   16:10  999.0    64   40.1     2    277.4     4.5   595.70
 240   16:20  999.0    63   40.1     2    273.5     3.9   595.40
 240   16:30  999.0    63   40.1     2    263.3     3.0   595.20
 240   16:40  999.0    62   40.0     2    265.2     3.9   595.40
 240   16:50  999.0    62   40.0     2    277.9     3.9   593.30
 240   17:00  999.0    62   40.0     2    258.1     3.3   593.30
 240   17:10  999.0    61   39.9     2    268.1     3.9   591.80
 240   17:20  999.0    61   39.9     2    252.9     4.2   590.90

Return to Mt. Lincoln graphs page.


Western Regional Climate Center,wrcc@dri.edu